Temperature
10 10 10 9 9 9 9 9 9 9 9 9 8 8 8 8 8 8 8 8 8 8 8 8 8 7 7 7 7 7 7 7 7 7 7 8 8 8 8 8 8 8 8
10 10 10 9 9 9 9 9 9 9 9 9 8 8 8 8 8 8 8 8 8 8 8 8 8 7 7 7 7 6 6 6 6 6 7 7 7 7 7 7 7 8 8
10 10 10 10 9 9 9 9 9 9 9 8 8 8 8 8 8 8 8 8 8 8 8 8 7 7 7 7 6 6 6 6 6 6 6 6 6 6 6 6 7 7 7
10 10 10 10 9 9 9 9 9 9 8 8 8 9 9 9 8 8 8 8 7 7 7 7 7 7 7 7 6 6 6 6 5 5 5 5 5 6 6 6 6 6 6
10 10 10 10 9 9 9 9 9 9 8 9 9 9 9 9 8 8 8 7 7 7 7 7 6 7 7 6 6 6 5 5 5 5 5 5 5 5 5 5 5 5 6
10 10 10 10 9 9 9 9 8 8 8 8 9 9 9 9 8 8 7 7 7 6 6 6 6 6 6 6 5 5 5 4 4 4 4 4 4 4 4 4 4 5 5
10 10 10 10 9 9 9 9 8 8 8 8 8 9 9 8 7 7 7 7 6 6 6 5 5 5 5 5 5 5 4 4 4 3 3 3 3 3 3 3 4 4 4
10 10 10 10 9 9 9 9 9 8 8 8 7 7 7 7 7 7 7 6 6 6 5 5 5 5 5 5 5 5 4 4 3 3 3 3 3 3 3 3 3 3 3
10 10 10 10 9 9 9 9 9 8 8 7 7 6 6 5 6 6 6 5 5 5 5 5 5 4 4 4 4 4 4 3 3 2 2 2 2 2 2 2 2 2 3
10 10 10 10 9 9 9 9 8 8 8 7 7 6 5 5 4 4 6 5 5 5 4 4 4 4 4 4 4 3 3 3 2 2 2 1 1 1 1 2 2 2 2
10 10 10 10 9 9 9 9 8 8 7 7 6 6 5 5 4 3 3 5 5 5 4 4 4 4 3 3 3 3 2 2 2 2 1 1 1 1 1 1 1 1 1
10 10 10 9 9 9 9 8 8 7 7 6 6 5 5 4 4 3 2 3 4 5 4 4 4 3 2 2 1 1 1 1 1 1 0 0 0 0 0 -0 -0 0 0
10 10 10 9 9 9 8 8 8 7 7 6 6 5 5 4 4 3 2 2 2 3 4 4 3 2 2 1 1 0 0 0 -0 -0 -1 -1 -1 -1 -1 -1 -1 -1 -1
10 10 10 9 9 9 8 8 7 7 6 6 5 5 4 4 3 3 2 1 1 1 2 3 3 2 1 0 0 -0 -0 -1 -1 -1 -2 -2 -2 -2 -2 -2 -2 -2 -2
10 10 9 9 9 8 8 7 7 7 6 6 5 5 4 4 3 3 2 1 0 -1 -0 1 1 1 0 -0 -0 -1 -1 -1 -1 -2 -2 -2 -3 -3 -3 -3 -3 -3 -3
10 9 9 9 8 8 8 7 7 6 6 5 5 4 4 3 3 2 2 1 0 -1 -2 0 0 0 -0 -1 -1 -1 -1 -2 -2 -2 -2 -3 -3 -3 -3 -3 -4 -3 -3
10 9 9 9 8 8 7 7 6 6 5 5 4 4 3 3 2 2 1 1 0 -1 -2 -1 -1 -1 -1 -2 -2 -2 -2 -2 -3 -3 -3 -3 -3 -4 -4 -4 -4 -4 -4
9 9 9 8 8 7 7 6 6 5 5 4 4 3 3 2 2 1 1 0 0 -1 -2 -2 -2 -2 -2 -3 -3 -3 -4 -4 -4 -4 -4 -4 -4 -4 -4 -4 -4 -4 -4
9 9 8 8 7 7 6 6 5 5 4 4 3 3 3 2 2 1 1 0 -0 -1 -2 -3 -2 -3 -3 -3 -4 -4 -5 -5 -5 -5 -5 -5 -5 -5 -4 -4 -4 -5 -5
9 8 8 7 7 6 6 5 5 4 4 3 3 3 2 1 1 1 0 -0 -1 -2 -2 -3 -3 -3 -4 -4 -5 -5 -5 -5 -5 -5 -5 -5 -5 -5 -5 -5 -5 -5 -5
8 8 7 7 6 6 5 5 4 4 3 3 3 2 2 1 1 0 -1 -1 -2 -2 -3 -3 -4 -4 -4 -5 -5 -5 -6 -5 -5 -5 -5 -5 -5 -5 -5 -5 -5 -5 -5
8 7 7 6 6 6 5 4 4 3 3 2 2 2 1 1 0 -0 -1 -2 -2 -3 -3 -4 -4 -5 -5 -5 -5 -6 -6 -6 -6 -5 -6 -6 -6 -5 -5 -5 -5 -6 -6
7 7 6 6 5 5 4 4 3 2 2 2 1 1 0 -0 -1 -1 -2 -2 -3 -3 -4 -4 -5 -5 -5 -6 -6 -6 -6 -6 -6 -6 -6 -6 -6 -6 -5 -6 -6 -6 -6
7 6 6 5 5 4 4 3 2 2 1 1 1 0 -1 -1 -1 -2 -2 -3 -3 -3 -4 -5 -5 -5 -6 -6 -6 -6 -6 -6 -6 -6 -6 -6 -6 -6 -6 -6 -6 -6 -6
6 6 5 5 4 4 3 3 2 1 1 0 0 -1 -1 -2 -2 -3 -3 -4 -4 -4 -5 -5 -6 -6 -6 -6 -6 -6 -6 -6 -6 -6 -6 -7 -7 -7 -7 -6 -6 -6 -6
5 5 4 4 3 3 2 2 1 0 0 -0 -1 -1 -2 -2 -3 -4 -4 -5 -5 -5 -5 -6 -6 -6 -6 -6 -6 -6 -6 -7 -7 -7 -7 -7 -7 -8 -8 -7 -7 -7 -7
Wind_Speed
4 4 3 4 3 2 1 2 4 3 4 5 6 7 6 7 8 7 2 2 1 4 7 8 9 10 10 11 11 12 13 13 14 14 15 15 15 15 15 15 15 15 15
6 4 3 3 2 1 0 2 4 3 4 4 5 7 7 7 7 8 5 1 1 1 4 7 8 9 10 11 12 12 13 14 14 15 15 15 16 16 16 16 16 16 16
7 5 2 2 2 1 1 2 4 4 3 3 4 6 6 7 7 7 6 3 1 0 2 4 7 9 10 11 12 13 13 14 15 15 16 16 17 17 17 17 17 18 18
7 4 2 2 2 2 1 1 1 2 3 3 4 4 5 6 6 5 5 4 3 2 1 2 5 7 9 11 12 13 14 15 15 16 16 17 17 18 18 18 18 19 19
8 5 3 3 4 2 1 0 1 1 3 3 4 5 4 3 3 4 3 2 2 2 2 2 4 6 8 11 13 14 15 15 16 17 17 18 18 19 19 19 20 20 20
8 6 4 4 4 2 1 1 1 1 1 2 5 6 5 4 2 1 2 2 2 2 3 4 5 5 8 12 14 15 16 16 17 17 18 18 19 20 20 20 20 21 21
9 6 4 4 3 2 2 2 2 2 2 3 3 5 5 3 1 1 1 2 3 4 5 5 5 6 8 11 14 16 16 17 18 18 19 19 20 20 21 21 21 21 22
9 7 5 4 4 3 3 3 3 2 2 3 2 3 5 5 4 3 2 1 2 5 5 7 8 9 9 10 12 15 16 17 18 19 20 20 21 21 22 22 22 22 23
10 8 6 5 4 3 3 3 3 2 1 2 2 2 1 3 4 4 3 2 2 3 4 7 8 10 10 11 11 12 15 17 18 20 21 21 22 22 22 22 23 23 23
9 9 8 7 5 4 4 3 3 2 2 0 1 1 1 1 1 4 5 4 4 5 5 5 7 10 10 10 11 14 15 17 19 21 22 22 23 23 23 23 23 23 24
8 9 8 7 5 4 4 4 3 2 1 1 0 0 1 1 2 3 5 5 5 4 5 5 7 9 10 10 10 12 15 17 20 21 22 23 23 23 24 24 24 24 24
5 8 8 7 6 4 5 4 3 2 1 1 1 1 2 2 2 2 4 6 7 5 7 6 5 7 10 10 10 13 16 18 20 22 22 23 23 24 24 24 25 25 25
5 7 6 6 5 5 6 4 3 3 2 2 2 2 2 3 3 3 4 6 6 5 5 5 4 7 8 8 9 13 15 19 21 22 23 23 24 24 25 25 25 25 26
7 8 7 7 7 7 6 5 3 3 3 3 4 3 3 3 3 3 4 4 7 5 4 5 5 6 7 9 12 15 14 19 22 23 24 25 25 25 25 25 25 26 26
7 9 8 7 7 7 6 5 4 4 4 4 4 4 4 4 4 4 4 4 4 7 7 5 4 4 11 14 16 15 14 19 23 24 25 25 25 25 25 25 25 26 26
9 10 9 8 7 6 6 5 4 4 4 4 4 5 5 5 5 5 5 5 6 7 9 5 5 7 11 14 19 18 17 23 23 25 26 26 26 26 26 26 26 26 27
10 10 9 8 8 7 6 6 5 5 6 5 5 6 7 6 5 5 5 5 6 6 12 11 6 7 8 8 12 15 17 17 18 24 26 27 27 27 26 26 26 27 27
10 9 9 8 7 7 6 6 6 6 6 6 6 6 7 6 7 6 5 7 7 7 10 15 9 6 8 8 8 9 12 16 16 23 26 27 27 26 27 27 27 27 27
9 9 8 8 7 7 6 6 6 5 6 6 6 7 7 7 8 7 7 7 7 8 8 10 11 7 6 7 9 10 10 9 16 20 23 23 24 26 27 27 27 27 26
9 9 8 7 7 7 6 6 6 5 5 6 6 7 8 8 9 9 8 8 8 8 7 9 11 9 8 8 7 8 10 7 9 13 18 21 23 25 25 26 27 27 26
9 8 7 7 6 6 6 7 6 6 7 7 7 8 9 12 14 13 10 8 7 7 8 9 11 11 10 8 8 7 11 9 8 9 9 10 10 9 14 21 24 25 26
8 8 8 7 7 6 9 11 8 6 7 7 8 9 9 11 16 20 21 19 15 11 9 9 10 12 12 9 9 9 10 11 9 5 6 8 7 9 8 12 21 25 25
7 7 7 7 7 8 11 12 12 7 7 7 8 8 10 10 14 9 14 19 17 20 19 13 12 12 12 11 11 11 10 12 12 7 8 10 7 9 8 15 22 24 24
7 6 7 7 6 8 11 12 12 8 7 8 9 9 10 10 10 11 9 9 9 10 13 11 11 12 13 12 12 13 14 13 11 8 7 9 7 7 10 8 19 21 20
6 6 6 6 6 7 10 11 10 5 6 8 9 9 10 9 16 19 12 10 10 9 15 20 22 21 24 25 19 11 9 10 11 7 4 5 5 6 6 7 11 16 19
5 5 5 5 6 6 9 11 11 5 7 7 7 8 13 14 18 19 11 9 11 10 10 12 14 17 15 16 20 11 7 9 10 7 3 2 4 4 5 4 4 8 12
Wind_Direction
178 183 194 191 208 209 204 269 296 327 334 345 339 326 317 319 318 323 316 252 271 324 330 331 333 335 337 339 339 338 336 333 331 331 329 327 325 322 319 317 314 309 303
177 181 197 191 196 184 273 321 327 346 335 335 324 313 311 321 324 328 323 288 230 326 336 339 340 341 341 339 337 336 334 332 330 328 326 324 322 319 316 315 314 311 308
179 175 177 160 156 144 356 348 336 336 317 323 325 326 335 328 328 327 346 4 55 78 343 346 346 342 339 337 336 334 332 330 328 326 324 322 321 319 315 313 310 308 307
175 175 163 154 126 97 47 13 335 343 338 350 340 331 325 317 320 332 342 347 32 56 22 326 336 336 335 335 334 333 330 328 325 323 321 319 317 315 313 311 309 307 304
180 169 155 142 127 114 83 16 27 32 356 351 329 311 301 298 306 322 328 10 31 1 336 296 307 315 322 329 330 330 327 325 324 322 320 318 316 314 311 309 307 305 302
172 160 148 136 122 112 98 63 43 31 14 358 326 307 289 271 257 304 345 357 334 326 341 335 319 318 321 324 327 326 325 325 324 322 321 319 316 314 311 308 306 303 301
160 150 136 126 118 125 126 81 61 24 9 12 349 324 311 288 155 85 19 3 349 351 341 325 330 337 332 326 324 322 322 323 323 322 320 319 317 314 311 309 307 304 302
152 146 137 134 124 115 96 82 76 39 10 37 35 357 345 343 359 346 329 328 345 352 341 336 337 329 325 325 321 320 320 321 321 321 320 319 317 314 312 310 308 306 304
147 145 143 131 125 123 123 109 98 91 43 8 57 87 44 313 321 315 319 333 352 337 321 319 316 315 318 319 317 316 315 318 320 320 319 319 317 314 312 310 309 307 305
148 149 144 135 128 123 126 122 106 104 105 32 357 61 180 201 291 312 314 325 338 320 310 312 310 306 306 306 308 311 313 315 318 318 318 317 315 314 313 311 310 309 307
147 147 145 138 134 132 132 125 118 116 118 143 149 325 314 306 231 237 286 303 314 302 311 302 296 292 294 294 295 301 309 314 315 315 315 314 314 313 312 311 310 309 306
149 151 147 145 145 139 135 134 136 148 163 178 201 207 206 230 259 259 275 297 299 293 298 282 279 279 279 280 284 298 306 310 312 311 311 311 310 310 309 309 308 307 305
159 162 152 155 153 146 144 146 155 177 190 198 218 235 232 232 237 250 271 286 292 296 292 285 282 293 292 295 298 303 304 307 308 308 308 308 308 306 305 305 305 305 304
163 159 157 159 156 154 157 161 171 193 196 204 226 234 239 247 244 241 247 277 298 295 282 281 303 296 312 315 308 306 302 305 307 306 307 306 305 304 303 303 303 303 302
155 154 156 158 161 163 167 169 186 203 201 211 221 234 240 244 241 241 239 231 250 286 291 278 285 306 321 311 306 305 302 306 308 308 307 306 305 304 303 302 302 301 300
149 154 161 165 166 169 174 178 192 205 208 220 220 231 242 244 243 240 238 237 231 250 274 269 274 291 300 303 305 310 308 307 307 307 305 304 304 304 303 302 302 300 299
155 161 167 169 173 178 182 189 200 204 216 229 233 236 244 243 245 245 243 244 245 246 270 279 270 282 291 296 303 303 302 301 301 304 303 302 302 303 303 302 302 301 300
160 164 167 171 178 184 188 196 209 213 220 232 240 245 252 255 253 250 249 250 253 251 265 281 285 282 281 286 286 288 298 299 298 299 299 300 301 303 304 304 303 302 301
162 164 167 176 184 188 194 203 210 218 227 236 243 249 255 256 260 257 255 256 258 265 262 278 288 285 283 285 289 289 286 288 292 295 297 298 300 302 303 304 305 304 303
164 169 174 180 186 190 198 207 211 222 237 247 251 252 255 254 256 258 260 258 260 265 269 277 284 288 285 283 284 289 293 281 284 291 292 293 295 299 300 302 304 303 302
167 168 173 182 188 194 204 206 211 223 235 248 254 254 256 258 263 267 268 261 255 261 268 276 282 288 289 290 286 286 293 292 279 277 279 281 288 287 292 296 299 298 297
168 171 181 188 198 209 217 220 220 223 233 244 256 260 263 267 272 276 278 279 275 273 274 275 281 284 287 284 286 287 289 293 293 261 269 283 285 286 286 287 293 298 301
172 180 188 193 205 217 224 233 236 234 237 246 255 264 273 274 279 272 278 281 281 281 281 281 281 281 285 285 284 284 279 280 283 280 287 288 278 280 283 292 299 303 303
177 184 193 199 209 223 229 238 243 240 243 250 255 260 266 269 270 276 269 266 261 267 274 278 272 274 276 276 270 275 279 282 280 273 268 281 282 279 289 289 298 303 308
184 190 193 201 213 230 234 243 248 239 246 253 257 261 268 271 281 287 285 279 278 273 282 283 283 286 287 290 291 290 289 292 293 286 256 263 282 291 285 282 293 310 318
185 187 200 208 216 231 243 248 250 240 250 259 261 261 273 281 288 291 286 280 282 281 278 281 282 285 287 287 291 285 279 284 289 290 267 277 287 308 300 279 293 313 314
Height
1548 1549 1550 1550 1550 1551 1551 1550 1550 1550 1549 1548 1547 1546 1545 1544 1543 1542 1540 1538 1537 1535 1534 1533 1532 1531 1530 1529 1528 1527 1526 1525 1524 1523 1522 1522 1521 1520 1519 1519 1518 1518 1517
1547 1548 1548 1549 1549 1549 1549 1549 1549 1548 1547 1546 1545 1544 1543 1542 1540 1539 1538 1536 1535 1533 1532 1531 1529 1528 1527 1526 1525 1524 1523 1522 1521 1519 1518 1517 1517 1516 1515 1514 1514 1513 1513
1545 1546 1547 1547 1547 1548 1547 1547 1547 1546 1545 1544 1543 1542 1541 1539 1538 1537 1535 1534 1532 1531 1530 1529 1527 1526 1525 1524 1522 1521 1519 1518 1517 1516 1514 1513 1512 1511 1510 1510 1509 1508 1508
1542 1544 1545 1545 1545 1545 1545 1545 1544 1543 1543 1541 1540 1539 1538 1536 1535 1534 1533 1532 1530 1529 1528 1527 1525 1524 1522 1521 1519 1518 1516 1515 1513 1512 1510 1509 1508 1507 1506 1505 1504 1503 1502
1540 1541 1542 1543 1543 1543 1543 1542 1542 1541 1540 1539 1538 1536 1535 1533 1532 1531 1531 1530 1529 1527 1526 1524 1523 1521 1520 1518 1517 1515 1513 1511 1509 1508 1506 1505 1503 1502 1501 1499 1498 1498 1497
1537 1539 1540 1540 1541 1541 1540 1540 1539 1539 1538 1536 1535 1534 1532 1531 1530 1529 1529 1528 1527 1526 1524 1523 1521 1519 1517 1515 1513 1511 1509 1507 1505 1504 1502 1500 1498 1497 1495 1494 1493 1492 1491
1534 1536 1537 1538 1538 1538 1538 1538 1537 1536 1535 1534 1532 1531 1530 1529 1528 1528 1527 1526 1525 1524 1523 1521 1519 1517 1514 1512 1510 1508 1505 1503 1501 1499 1497 1495 1493 1492 1490 1489 1488 1486 1485
1531 1533 1534 1535 1535 1536 1536 1535 1535 1534 1533 1532 1531 1529 1528 1528 1527 1526 1525 1524 1523 1522 1520 1518 1516 1514 1511 1509 1506 1504 1501 1499 1497 1495 1493 1490 1488 1487 1485 1483 1482 1480 1479
1528 1530 1531 1532 1532 1533 1533 1533 1533 1532 1531 1531 1530 1530 1528 1526 1525 1523 1522 1521 1520 1518 1517 1515 1513 1510 1508 1505 1502 1500 1497 1494 1492 1490 1488 1486 1483 1481 1479 1478 1476 1474 1473
1525 1527 1528 1529 1530 1530 1530 1530 1530 1530 1529 1529 1528 1527 1527 1526 1524 1520 1519 1518 1517 1515 1513 1511 1508 1506 1503 1501 1498 1496 1493 1490 1488 1485 1483 1480 1478 1475 1473 1471 1470 1468 1466
1521 1523 1525 1526 1527 1527 1528 1528 1528 1527 1527 1526 1526 1525 1524 1523 1522 1520 1515 1513 1511 1510 1508 1506 1504 1501 1499 1496 1494 1491 1489 1486 1483 1480 1477 1475 1472 1469 1467 1465 1463 1460 1458
1517 1520 1521 1522 1523 1524 1525 1525 1525 1525 1524 1524 1523 1522 1521 1520 1519 1517 1513 1509 1506 1504 1503 1501 1498 1496 1494 1491 1489 1487 1484 1481 1478 1475 1472 1469 1466 1463 1461 1458 1456 1453 1451
1513 1515 1517 1519 1520 1521 1521 1522 1522 1521 1521 1520 1520 1519 1518 1517 1515 1514 1510 1506 1502 1498 1496 1495 1494 1492 1490 1487 1485 1482 1479 1476 1473 1470 1467 1463 1460 1457 1454 1451 1449 1446 1444
1509 1512 1514 1515 1516 1517 1518 1518 1518 1518 1517 1517 1516 1515 1514 1513 1511 1510 1507 1504 1498 1493 1491 1490 1489 1488 1485 1483 1480 1477 1473 1470 1467 1464 1461 1457 1454 1451 1448 1445 1442 1440 1437
1505 1508 1510 1512 1513 1513 1514 1514 1514 1514 1513 1512 1512 1511 1510 1508 1507 1505 1503 1501 1498 1491 1485 1484 1483 1482 1480 1477 1475 1471 1467 1464 1461 1458 1454 1451 1448 1445 1442 1439 1436 1433 1430
1501 1504 1506 1507 1508 1509 1510 1510 1510 1509 1509 1508 1507 1506 1505 1504 1502 1500 1499 1497 1494 1489 1482 1477 1477 1476 1473 1471 1469 1465 1462 1458 1455 1451 1448 1445 1442 1439 1435 1432 1429 1426 1423
1497 1499 1501 1503 1504 1505 1505 1505 1505 1505 1504 1503 1502 1501 1500 1498 1497 1495 1493 1491 1488 1485 1477 1471 1471 1469 1467 1464 1461 1459 1455 1451 1448 1445 1442 1438 1435 1432 1429 1426 1423 1419 1416
1493 1495 1497 1498 1499 1500 1501 1501 1500 1500 1499 1498 1497 1496 1494 1493 1491 1489 1487 1484 1482 1479 1474 1466 1463 1462 1460 1458 1454 1451 1448 1445 1442 1438 1435 1432 1429 1426 1423 1419 1416 1413 1409
1488 1490 1492 1493 1495 1495 1496 1496 1495 1495 1494 1493 1492 1490 1489 1487 1484 1483 1480 1477 1475 1472 1468 1463 1457 1455 1453 1451 1447 1444 1441 1438 1435 1432 1429 1426 1423 1420 1416 1413 1409 1406 1402
1483 1485 1487 1489 1490 1490 1490 1490 1490 1489 1488 1487 1486 1484 1482 1481 1478 1476 1473 1470 1468 1465 1462 1457 1452 1448 1446 1444 1441 1437 1433 1431 1428 1426 1422 1419 1416 1413 1410 1406 1402 1399 1395
1478 1480 1482 1483 1484 1485 1485 1485 1484 1483 1482 1480 1479 1477 1476 1474 1471 1469 1467 1463 1461 1458 1454 1450 1445 1441 1438 1437 1434 1431 1427 1423 1420 1419 1415 1412 1409 1405 1402 1399 1395 1391 1388
1473 1475 1477 1478 1479 1479 1479 1479 1478 1477 1475 1474 1472 1470 1469 1467 1464 1462 1460 1457 1455 1452 1448 1444 1439 1436 1432 1431 1428 1425 1421 1417 1411 1411 1408 1404 1402 1398 1395 1391 1388 1385 1382
1467 1469 1471 1472 1473 1474 1474 1473 1472 1470 1468 1467 1465 1463 1461 1459 1457 1454 1452 1449 1447 1445 1442 1439 1433 1429 1426 1424 1422 1418 1415 1411 1406 1404 1402 1396 1394 1391 1388 1385 1382 1379 1376
1462 1464 1466 1467 1467 1468 1468 1467 1466 1464 1462 1460 1458 1456 1454 1451 1449 1447 1443 1440 1438 1436 1434 1431 1427 1423 1420 1418 1415 1412 1408 1403 1399 1398 1396 1390 1387 1384 1381 1378 1376 1373 1370
1457 1459 1460 1461 1461 1462 1462 1461 1459 1457 1454 1453 1451 1449 1447 1444 1442 1440 1436 1432 1429 1426 1425 1423 1420 1417 1414 1412 1409 1406 1401 1398 1393 1390 1389 1386 1381 1378 1374 1372 1370 1368 1365
1452 1453 1454 1455 1456 1456 1455 1454 1453 1450 1447 1445 1443 1441 1440 1437 1435 1432 1429 1425 1421 1418 1416 1413 1411 1409 1406 1404 1402 1400 1396 1392 1388 1384 1383 1381 1377 1374 1369 1366 1365 1363 1360